Tracking 28766 objects as of 13-Apr-2024
HD Live streaming from Space Station
objects crossing your sky now

FENGYUN 1C DEB

Track FENGYUN 1C DEB now!
10-day predictions


NORAD ID: 31353
Int'l Code: 1999-025BRH
Perigee: 639.4 km
Apogee: 985.3 km
Inclination: 99.0 °
Period: 101.0 minutes
Semi major axis: 7183 km
RCS: 0.0153 m2 (small)
Launch date: May 10, 1999
Source: People's Republic of China (PRC)
Launch site: Taiyaun Space Center, China (TSC)

Note: This is SATELLITE DEBRIS
Your satellite tracking list
Your tracking list is empty




NASA's NSSDC Master Catalog

Two Line Element Set (TLE):
1 31353U 99025BRH 24100.53887868  .00002130  00000-0  67438-3 0  9997
2 31353  99.0022   1.2514 0240701  42.0859 319.8532 14.25976164878463
Source of the keplerian elements: AFSPC